User: anonymous
Location: Durham
(54.7770°N, 1.5720°W)
Time: 06:06:20
(UTC+01:00)
Language:

ISS - Orbit

View from above orbital plane
View from above orbital plane
View from above satellite
View from above satellite

Ground track
Ground track

The orbit data is extracted from the following two-line orbital elements,

1 25544U 98067A   14239.91664816  .00023399  00000-0  41609-3 0  9786
2 25544 051.6475 104.0505 0003570 055.4709 068.6766 15.50042569902456
Epoch (UTC): 27 August 2014 21:59:58
Eccentricity: 0.0003570
inclination: 51.6475°
perigee height: 414 km
apogee height: 419 km
right ascension of ascending node: 104.0505°
argument of perigee: 55.4709°
revolutions per day: 15.50042569
mean anomaly at epoch: 68.6766°
orbit number at epoch: 90245

The dashed part of the orbit path shows where the satellite is in the earth's shadow,  

DLR